Flag for Canada Weather past 2 weeks in Whitehorse, Yukon, Canada

Now
70 °F

More clouds than sun.


Feels Like: 70 °F
Forecast: 56 / 70 °F
Wind: No wind

Location: Withehorse

Current Time: Jul 7, 2015 at 11:27:26 AM

Latest Report: Jul 7, 2015 at 11:00 AM


Visibility: 40 mi

Pressure: 29.92 "Hg (27.77 "Hg at 640m altitude)

Humidity: 50%

Dew point: 50 °F

Location of WhitehorseLocation

Historic Weather in Whitehorse — Graph

°F

Whitehorse temperature yesterday

Maximum temperature yesterday: 82 °F (at 6:00 PM)
Minimum temperature yesterday: 59 °F (at 4:00 AM)
Average temperature yesterday: 72 °F

Past Weeks' High & Low Weather Summary

 TemperatureHumidityPressure
High82 °F (Jul 6, 6:00 PM)100% (Jul 3, 5:00 AM)30.33 "Hg (Jul 3, 5:00 AM)
Low43 °F (Jun 30, 5:00 AM)24% (Jun 24, 7:00 PM)29.78 "Hg (Jun 25, 8:00 PM)
Average60 °F56%30.05 "Hg
* Reported Jun 22 10:00 AM — Jul 7 10:00 AM, Whitehorse, Weather by CustomWeather, © 2015

Note: Actual official high and low records may vary slightly from our data, if they occured in-between our weather recording intervals... More about our weather records

Advertising

Whitehorse weather history for previous 24 hours

 ConditionsComfort  
Time TempWeatherWind HumidityBarometerVisibility
10:00 AM
Tue, Jul 7
68 °FBroken clouds.5 mph49%29.93 "Hg40 mi
9:07 AM68 °FBroken clouds.8 mph49%29.94 "Hg40 mi
8:00 AM63 °FPartly sunny.No wind59%29.96 "Hg40 mi
7:00 AM63 °FPartly sunny.2 mph56%29.98 "Hg40 mi
6:00 AM61 °FPartly sunny.No wind63%29.99 "Hg40 mi
5:00 AM61 °FPartly cloudy.6 mph59%30.01 "Hg30 mi
4:00 AM63 °FPassing clouds.5 mph56%30.01 "Hg30 mi
3:00 AM66 °FPassing clouds.8 mph49%30.01 "Hg20 mi
2:00 AM68 °FPassing clouds.7 mph46%30.01 "Hg20 mi
1:00 AM72 °FPassing clouds.5 mph41%30.01 "Hg20 mi
12:00 AM72 °FPartly sunny.No wind44%30.01 "Hg30 mi
11:00 PM
Mon, Jul 6
75 °FBroken clouds.8 mph39%30.01 "Hg40 mi
10:00 PM81 °FPartly sunny.5 mph32%30.01 "Hg40 mi
9:00 PM81 °FBroken clouds.2 mph30%30.02 "Hg40 mi
8:00 PM82 °FScattered clouds.2 mph28%30.03 "Hg40 mi
7:00 PM82 °FScattered clouds.2 mph26%30.06 "Hg40 mi
6:00 PM82 °FBroken clouds.3 mph26%30.08 "Hg30 mi
5:00 PM81 °FPartly sunny.3 mph28%30.10 "Hg30 mi
4:00 PM81 °FPartly sunny.2 mph28%30.11 "Hg30 mi
3:00 PM79 °FPartly sunny.5 mph32%30.12 "Hg30 mi
2:07 PM79 °FPartly sunny.3 mph34%30.13 "Hg30 mi
1:16 PM77 °FPartly sunny.5 mph36%30.15 "Hg30 mi
12:00 PM75 °FPartly sunny.3 mph36%30.16 "Hg30 mi
11:00 AM73 °FPartly sunny.8 mph38%30.17 "Hg30 mi
Weather by CustomWeather, © 2015

See weather overviewHow to use our weather pages